loading
|
Showing default

OPS 8068, 1580

Orbit data source: Space-Track

OPS 8068, 1580 is a payload satellite owned by USAF SSD (US) in SSO that was launched on Fri, 10 Sep 1965 UTC via a THOR BURNER 1 launch vehicle from the Air Force Western Test Range (AFWTR). Payloads include a variety of satellites, spacecraft, and rockets equipped with specific instruments for various scientific and technological missions. These include communications satellites like Starlink; space stations such as the ISS; scientific satellites like the Hubble; Earth observation satellites from companies like Planet Labs, Umbra, and HawkEye 360; GPS; miniature CubeSats for education and research; and military/defense satellites.

Loading next visibility...
Loading greatness...
OPS 8068 details
Identifier
1580, 1965-072A
Orbit
SSO
Last TLE update14 hours ago
Origin
Flag of USUSAF SSD (US)
ManufacturerRCA/East Windsor
MissionDefense Weather
Bus & MotorP35, Unknown motor
Mass72 kg wet, 72 kg dry
Launch date (UTC)
1965-09-10 (59 years ago)
Launch vehicle
THOR BURNER 1
Launch site
Air Force Western Test Range (AFWTR)
Object type
Payload
Rocket body
Debris
Shape & HBRCyl, 0.6 m
Radar Cross Section0.377 m², Medium (>0.1 m² and < 1m²)

Expand to show TLE details & history

TLE from 14 hours ago
0 OPS 8068
1 01580U 65072A   24278.45405625  .00001897  00000-0  57625-3 0  9991
2 01580  98.3532  86.8075 0232361  80.4743 282.2615 14.28816278 44341
Epoch: 2024-10-04T10:53Z
Definitive object data (Epoch: 2024-10-04T10:53:50.459Z)
Latitude-0.00005°
Longitude-90.27723°
Altitude766.947 km
Speed7.487 km/s
True Right ascension05h 47m 13s
True Declination0° 00' 00"
Sunlit
Object was in daylight at TLE epoch
Predictive object data (real-time)
Latitude58.46733°
Longitude104.05054°
Altitude679.686 km
Speed7.588 km/s
Apparent Right ascension07h 04m 25s
Apparent Declination57° 57' 20"
Sunlit
Object is in daylight
Predictive observer data (real-time)
Local Sidereal Time18:49:25
Azimuth357.991° N
Elevation7.922°
Doppler factor1
Orbital elements
Apogee959.443 km
Perigee626.193 km
Semi-major axis7,170.955 km
Eccentricity0.0232361
Inclination98.3532°
RAAN86.8075°
Arg. of periapsis80.4743°
True anomaly279.64434°
Mean anomaly282.2615°
Eccentric anomaly280.95443°
Mean motion3.57419 °/min
BSTAR0.00057625
Period100.72 mins
No data available

OPS 8068 Visibility forecast

Observer location: 39.9160978°, -105.1181434

OPS 8068 is not visible in the next 10 days
Span
Click to sort rows by Start time (UTC) header in descending order
Start Az.
Max El. time (UTC)
Max El. Az.
Max El.
End time (UTC)
End Az.